EHI
14 11 9 8 6 4 4 3 2 2 2 1 0 0 0 0 0 0 0 0 0 0 0 0 0 0 0 0 0 0 0 0 0 0 0 0 0 0 0 0 0 0 0
18 16 14 13 10 7 5 3 1 1 1 0 0 0 0 0 0 0 0 0 0 0 0 0 0 0 0 0 0 0 0 0 0 0 0 0 0 0 0 0 0 0 0
24 23 21 18 14 9 4 1 0 0 0 0 0 0 0 0 0 0 0 0 0 0 0 0 0 0 0 0 0 0 0 0 0 0 0 0 0 0 0 0 0 0 0
27 26 24 19 13 7 3 0 0 0 0 0 0 0 0 0 0 0 0 0 0 0 0 0 0 0 0 0 0 0 0 0 0 0 0 0 0 0 0 0 0 0 0
25 24 22 18 11 5 1 0 0 0 0 0 0 0 0 0 0 0 0 0 0 0 0 0 0 0 0 0 0 0 0 0 0 0 0 0 0 0 0 0 0 0 0
21 21 19 15 8 3 1 0 0 0 0 0 0 0 0 0 0 0 0 0 0 0 0 0 0 0 0 0 0 0 0 0 0 0 0 0 0 0 0 0 0 0 0
17 18 16 11 6 2 1 1 1 0 0 0 0 0 0 0 0 0 0 0 0 0 0 0 0 0 0 0 0 0 0 0 0 0 0 0 0 0 0 0 0 0 0
15 16 15 11 6 3 2 2 2 1 0 0 0 0 0 0 0 0 0 0 0 0 0 0 0 0 0 0 0 0 0 0 0 0 0 0 0 0 0 0 0 0 0
14 15 15 11 7 4 4 5 4 1 0 0 0 0 0 0 0 0 0 0 0 0 0 0 0 0 0 0 0 0 0 0 0 0 0 0 0 0 0 0 0 0 0
13 15 16 13 8 5 5 6 4 1 0 0 0 0 0 0 0 0 0 0 0 0 0 0 0 0 0 0 0 0 0 0 0 0 0 0 0 0 0 0 0 0 0
10 13 15 14 10 6 6 5 3 1 0 0 0 0 0 0 0 0 0 0 0 0 0 0 0 0 0 0 0 0 0 0 0 0 0 0 0 0 0 0 0 0 0
7 9 11 12 10 7 6 4 2 0 0 0 0 0 0 0 0 0 0 0 0 0 0 0 0 0 0 0 0 0 0 0 0 0 0 0 0 0 0 0 0 0 0
6 7 8 8 8 6 4 3 1 0 0 0 0 0 0 0 0 0 0 0 0 0 0 0 0 0 0 0 0 0 0 0 0 0 0 0 0 0 0 0 0 0 0
5 6 6 7 6 4 3 3 1 0 0 0 0 0 0 0 0 0 0 0 0 0 0 0 0 0 0 0 0 0 0 0 0 0 0 0 0 0 0 0 0 0 0
2 3 5 5 4 3 3 3 3 1 0 0 0 0 0 0 0 0 0 0 0 0 0 0 0 0 0 0 0 0 0 0 0 0 0 0 0 0 0 0 0 0 0
0 1 3 3 3 3 3 3 4 2 1 0 0 0 0 0 0 0 0 0 0 0 0 0 0 0 0 0 0 0 0 0 0 0 0 0 0 0 0 0 0 0 0
0 0 1 1 2 3 3 2 3 2 1 0 0 0 0 0 0 0 0 0 0 0 0 0 0 0 0 0 0 0 0 0 0 0 0 0 0 0 0 0 0 0 0
0 0 0 0 1 2 3 2 1 1 1 0 0 0 0 0 0 0 0 0 0 0 0 0 0 0 0 0 0 0 0 0 0 0 0 0 0 0 0 0 0 0 0
0 0 0 0 0 1 2 2 1 0 0 0 0 0 0 0 0 0 0 0 0 0 0 0 0 0 0 0 0 0 0 0 0 0 0 0 0 0 0 0 0 0 0
0 0 0 0 0 0 2 3 2 1 0 0 0 0 0 0 0 0 0 0 0 0 0 0 0 0 0 0 0 0 0 0 0 0 0 0 0 0 0 0 0 0 0
0 0 0 0 0 0 2 3 3 2 1 1 1 1 1 0 0 0 0 0 0 0 0 0 0 0 0 0 0 0 0 0 0 0 0 0 0 0 0 0 0 0 0
0 0 0 0 0 0 1 2 3 3 3 2 2 2 2 1 0 0 0 0 0 0 0 0 0 0 0 0 0 0 0 0 0 0 0 0 0 0 0 0 0 0 0
0 0 0 0 0 0 0 2 3 3 3 3 3 3 2 1 0 0 0 0 0 0 0 0 0 0 0 0 0 0 0 0 0 0 0 0 0 0 0 0 0 0 0
0 0 0 0 0 0 0 2 3 3 3 3 3 3 2 1 0 0 0 0 0 0 0 0 0 0 0 0 0 0 0 0 0 0 0 0 0 0 0 0 0 0 0
0 0 0 0 0 0 0 1 2 3 3 3 3 3 2 1 0 0 0 0 0 0 0 0 0 0 0 0 0 0 0 0 0 0 0 0 0 0 0 0 0 0 0
0 0 0 0 0 0 0 0 1 3 3 3 3 3 1 0 0 0 0 0 0 0 0 0 0 0 0 0 0 0 0 0 0 0 0 0 0 0 0 0 0 0 0
Wind_Speed
8 8 9 9 9 8 9 9 8 8 7 5 5 4 3 2 2 2 3 4 4 5 4 3 3 3 3 3 3 3 3 2 1 2 2 3 3 2 2 1 1 0 0
8 9 9 9 10 10 10 9 9 9 8 5 4 3 4 3 2 2 3 4 5 4 4 4 3 3 3 3 3 3 3 2 2 2 2 1 2 3 3 2 1 1 1
12 11 11 10 10 11 11 10 10 9 8 7 5 5 4 3 2 2 2 2 4 4 4 4 4 3 3 3 3 3 4 3 2 2 2 3 2 1 2 3 2 2 1
11 11 11 12 12 11 10 9 9 9 8 8 8 8 5 4 3 3 2 3 3 4 4 4 4 4 3 3 3 3 2 3 2 2 2 2 2 2 1 2 2 2 2
13 13 13 13 12 10 10 9 9 8 8 8 9 8 5 4 4 4 4 3 3 3 4 4 4 4 3 3 3 3 3 2 3 2 2 2 2 2 2 1 2 2 2
12 11 10 10 9 9 9 9 10 8 8 8 8 8 9 7 7 6 5 3 2 2 3 4 4 4 3 3 3 3 4 3 3 2 2 2 2 1 2 2 0 1 2
11 12 13 13 12 12 11 10 11 9 9 9 8 8 9 9 8 7 6 5 3 2 3 3 3 3 3 3 4 4 3 3 4 3 2 2 1 2 2 2 1 1 2
12 13 14 13 13 13 12 12 11 10 10 9 8 7 8 6 5 6 6 5 4 3 4 4 4 4 4 4 4 3 3 3 3 4 3 2 1 1 2 2 3 1 1
13 13 13 13 13 13 12 12 12 10 10 9 8 8 8 7 7 6 5 4 4 4 5 4 4 4 4 4 4 3 3 3 3 3 3 2 1 1 1 2 2 3 1
12 12 12 12 12 11 10 10 11 10 9 9 9 8 7 7 7 7 7 6 5 4 5 5 5 4 4 4 4 3 3 3 2 2 3 2 1 1 1 1 1 2 3
12 12 12 11 11 11 11 10 10 9 9 9 8 8 7 7 7 7 7 6 5 6 6 6 5 5 4 4 4 3 4 3 2 2 3 2 2 2 1 1 2 1 2
10 11 11 11 11 12 12 12 11 10 10 9 8 8 8 8 7 7 7 7 7 6 6 6 6 5 5 4 4 4 4 4 3 3 3 2 2 2 1 1 2 1 2
9 9 11 12 13 13 12 12 12 11 10 10 9 9 9 9 8 8 7 7 7 6 6 6 6 5 5 5 4 4 4 4 4 3 3 3 3 2 2 2 2 1 1
9 10 11 12 12 12 12 12 12 11 11 10 10 10 10 10 9 8 8 8 7 7 7 6 6 6 5 5 5 4 4 3 3 3 4 4 4 4 4 3 3 2 2
9 11 12 12 12 12 12 12 12 11 11 11 11 11 9 9 8 8 8 7 7 8 7 6 5 5 5 5 6 5 5 4 3 3 3 4 6 7 5 4 4 3 2
11 11 12 12 13 13 13 13 12 12 12 12 11 10 9 9 9 9 8 8 7 6 6 6 6 6 5 7 9 7 5 4 4 4 4 4 5 6 8 8 8 7 5
11 12 13 13 14 14 14 14 13 12 12 12 11 11 11 10 10 9 9 9 8 7 6 6 6 6 6 8 9 9 5 5 5 5 4 4 4 4 4 5 6 8 9
10 11 11 11 11 11 11 11 11 12 12 12 11 11 11 11 10 9 9 9 7 7 7 7 7 6 7 9 9 9 6 5 5 5 5 5 5 5 5 4 5 6 7
8 9 10 10 11 12 12 12 12 12 12 13 13 13 12 11 11 11 10 8 7 7 7 6 7 7 7 9 10 8 4 4 6 6 6 6 7 8 7 5 6 7 7
4 6 7 8 10 10 12 13 13 14 15 14 13 12 12 12 12 12 9 6 6 7 7 6 7 8 7 8 10 9 4 5 5 4 5 7 8 8 7 6 6 7 7
4 6 8 9 10 11 13 13 13 15 14 12 11 11 12 11 11 9 7 7 7 6 6 6 6 6 7 8 10 10 5 5 5 5 5 4 7 8 7 7 7 9 7
2 5 7 7 8 11 13 13 13 12 9 10 11 11 11 10 9 9 8 8 8 8 7 6 5 5 6 7 8 11 11 8 6 6 5 5 6 7 7 6 7 9 7
2 4 6 7 7 9 12 13 10 9 10 10 11 10 10 9 9 10 10 8 7 6 6 6 6 5 4 5 9 10 11 11 7 6 6 6 7 6 6 8 8 6 4
2 3 5 6 7 8 9 8 8 9 10 11 10 9 9 8 8 7 7 7 7 7 6 6 6 5 4 5 5 5 6 8 8 6 5 6 6 5 6 6 5 4 4
1 3 5 6 6 6 6 6 8 10 9 9 8 8 7 8 7 7 6 8 7 8 8 7 6 6 6 7 8 6 5 5 5 3 2 2 2 3 4 4 4 4 4
2 3 4 4 5 6 5 6 7 9 10 8 8 7 6 6 6 6 4 4 5 8 9 8 7 6 7 6 7 9 8 7 6 4 3 4 4 5 5 5 5 4 5
Wind_Direction
186 176 175 168 160 159 159 160 152 152 150 152 150 144 140 132 120 122 123 126 124 126 125 121 118 122 122 125 125 109 94 69 70 87 50 22 26 30 12 3 14 345 273
173 174 172 169 167 166 164 163 161 160 161 158 148 136 131 128 114 108 106 118 126 128 129 127 126 124 114 107 111 115 109 77 58 116 105 45 8 9 18 15 21 357 23
181 177 175 172 171 173 172 171 166 162 158 148 128 115 100 93 94 96 99 112 126 124 123 128 124 122 119 121 117 123 128 123 66 60 134 144 193 329 357 11 24 19 22
181 180 178 175 178 179 170 163 162 159 155 150 150 151 150 147 153 147 133 117 115 120 122 122 121 118 114 118 121 112 118 125 120 73 54 88 135 137 58 356 7 19 29
180 180 181 179 176 172 163 160 159 158 156 155 156 152 141 134 126 123 122 111 98 110 121 119 116 115 114 116 110 105 103 108 127 132 116 87 70 77 127 75 351 6 10
183 178 175 170 167 163 160 159 159 157 156 156 156 155 148 143 139 139 139 128 110 102 115 118 115 117 117 117 117 111 109 106 111 112 115 130 125 121 121 131 43 353 342
180 176 172 172 170 167 165 165 165 163 163 161 160 160 156 154 156 156 156 150 143 141 144 129 128 124 125 122 117 111 111 113 115 115 106 108 118 134 131 125 123 35 338
181 181 180 175 173 172 170 170 171 167 167 166 166 161 157 156 158 160 159 163 163 157 152 142 139 135 131 126 119 111 113 112 115 116 113 106 103 123 140 142 139 102 5
182 181 176 175 174 173 174 174 172 169 170 169 162 161 161 160 161 159 154 154 153 152 152 149 142 138 132 130 128 119 117 119 115 121 120 109 101 105 115 133 144 144 146
178 177 176 176 175 172 169 170 171 172 169 166 168 168 166 165 160 155 159 160 160 151 149 150 149 144 137 136 129 126 132 127 125 132 126 117 114 106 114 127 132 140 154
181 179 177 174 169 164 166 170 171 165 166 168 166 161 163 160 158 162 166 165 161 159 160 162 158 155 151 148 143 144 145 142 137 138 141 141 138 128 123 119 125 135 149
177 175 171 168 167 169 171 173 173 172 172 168 164 163 161 159 163 168 169 166 166 168 167 164 163 165 163 160 161 163 159 161 165 167 161 171 157 145 146 145 148 160 176
165 165 167 172 175 175 175 175 176 176 170 166 166 164 165 168 173 174 170 168 168 166 165 166 171 174 173 173 177 172 170 177 182 182 184 188 173 179 184 178 174 178 170
170 171 175 178 178 176 176 177 177 174 169 168 171 173 176 177 177 172 170 172 170 169 173 178 180 180 178 179 179 177 177 183 193 198 201 202 198 201 197 195 197 190 183
177 181 181 180 178 176 177 178 176 173 171 171 177 182 178 173 169 170 173 172 174 180 176 175 178 177 179 188 184 185 189 194 206 214 221 225 222 215 207 207 205 197 205
187 186 184 181 181 182 180 179 178 175 171 177 182 177 172 172 174 175 173 173 177 175 172 179 181 186 198 198 193 186 191 198 208 223 237 242 238 232 230 227 218 204 208
192 188 187 188 187 185 182 182 179 171 174 180 179 177 176 178 180 178 174 180 182 177 180 186 187 196 209 205 201 198 191 203 214 222 232 244 243 233 239 244 241 235 233
195 194 191 190 188 182 178 175 169 172 177 179 180 180 179 182 178 177 182 185 179 182 188 193 196 200 215 210 208 206 200 212 224 227 228 236 250 244 232 242 254 257 253
200 196 193 187 182 179 174 168 171 175 180 185 186 184 182 181 179 185 188 184 179 186 191 192 195 203 220 215 210 199 196 220 234 237 235 234 245 250 240 236 254 270 273
197 187 179 172 176 176 167 170 176 179 189 191 188 183 181 182 186 189 186 178 182 192 192 199 202 206 216 216 210 197 198 223 241 247 247 241 242 251 242 231 241 260 270
190 171 166 176 181 170 166 176 180 191 194 184 177 176 180 184 184 180 174 172 178 183 191 201 207 211 217 219 213 203 202 217 233 245 249 247 244 247 245 231 233 246 260
175 162 166 175 172 167 168 177 189 191 173 167 172 177 179 182 180 174 175 175 177 183 191 198 210 216 218 218 219 212 213 212 221 239 246 248 250 250 253 242 245 255 262
186 166 166 167 165 168 172 181 187 167 161 166 175 178 177 180 175 175 176 175 179 187 193 198 213 224 219 220 221 219 220 218 220 237 239 246 257 262 260 254 255 254 245
167 147 145 152 164 174 180 179 162 156 158 167 172 170 171 174 173 174 176 180 186 191 195 202 213 221 222 222 215 214 219 223 228 241 248 255 259 255 259 266 259 241 234
120 129 145 155 163 161 159 147 147 151 157 162 165 166 170 172 174 178 184 186 193 193 195 205 206 208 222 224 207 201 207 207 211 202 221 240 249 255 255 257 260 254 242
72 89 108 127 135 141 143 143 147 152 154 158 164 167 168 169 170 172 175 187 185 192 199 202 199 213 218 208 196 205 211 207 183 173 219 234 241 249 256 262 267 259 254